Regional Weather Roundup
Issued by NWS

Home | Current Version | Previous Version | Text Only | Print | Product List | Glossary Off
Versions: 1 2 3 4 5 6 7 8 9 10 11 12 13 14 15 16 17 18 19 20 21 22 23 24 25 26 27 28 29 30 31 32 33 34 35 36 37 38 39 40 41 42 43 44 45 46 47 48 49 50

000
ASUS45 KBOU 231207
RWRCO

WEATHER ROUNDUP FOR COLORADO
NATIONAL WEATHER SERVICE DENVER/BOULDER CO
600 AM MDT SAT AUG 23 2014

NOTE: "FAIR" INDICATES FEW OR NO CLOUDS BELOW 12000 FEET WITH NO
SIGNIFICANT WEATHER AND/OR OBSTRUCTIONS TO VISIBILITY.

COZ001>005-013-030-031-231300-
...NORTHWEST COLORADO...

CITY           SKY/WX    TMP DP  RH WIND       PRES   REMARKS
CRAIG          LGT RAIN  48  45  89 SE10      30.12F
HAYDEN         CLOUDY    46  43  87 SW7       30.16F
MEEKER         RAIN      49  46  90 SE7       30.15F FOG
MOUNT WERNER   NOT AVBL
STEAMBOAT SPGS CLOUDY    46  44  94 S7        30.18R
WALDEN         MOCLDY    50  43  76 S9G16     30.14R
$$

COZ006>008-011-231300-
...WEST CENTRAL VALLEYS...

CITY           SKY/WX    TMP DP  RH WIND       PRES   REMARKS
GRAND JUNCTION LGT RAIN  56  55  97 CALM      30.04S FOG
MONTROSE       CLOUDY    58  50  75 N6        30.10R
EAGLE          CLOUDY    52  50  93 CALM      30.14R
RIFLE          RAIN      53  51  93 N6        30.11R FOG
DELTA          RAIN      61  56  83 NW6       30.05F
NUCLA          CLOUDY    57  50  77 CALM      30.12R
$$

COZ017>023-064>068-231300-
...SOUTHWEST COLORADO...

CITY           SKY/WX    TMP DP  RH WIND       PRES   REMARKS
DURANGO        MOCLDY    50  49  96 CALM      30.20S
CORTEZ         CLEAR     52  50  93 E3        30.13S
PAGOSA SPRINGS CLOUDY    51  49  93 CALM      30.25F
TELLURIDE      MOCLDY    52  43  71 E3        30.26F
WOLF CREEK PAS NOT AVBL
$$

COZ009-010-012-014-032>034-037-058>063-231300-
...CENTRAL COLORADO...

CITY           SKY/WX    TMP DP  RH WIND       PRES   REMARKS
ASPEN          LGT RAIN  49  44  83 N6        30.17R
BUENA VISTA    PTCLDY    40  38  93 W7        30.18R
COPPER MTN     CLEAR     45  34  65 S16G25    30.36S
BERTHOUD PASS  FAIR      34  32  93 NW18G24   30.39S WCI  23
COTTONWOOD PAS PTCLDY    52  37  58 W13G23    30.26S
GUNNISON       CLOUDY    48  45  87 CALM      30.21F
KREMMLING      CLOUDY    50  45  81 N3        30.16R
LEADVILLE      PTCLDY    34  33  96 E5        30.26R WCI  30
MONARCH PASS   FOG       36  36 100 SW26G32   30.48S VSB 1/4
SALIDA         PTCLDY    54  45  72 CALM      30.21F
SUNLIGHT       LGT RAIN  41  41 100 SW3       30.32S
WILKERSON PASS NOT AVBL
$$

COZ069>075-231300-
...SAN LUIS VALLEY/SANGRE DE CRISTO MOUNTAINS...

CITY           SKY/WX    TMP DP  RH WIND       PRES   REMARKS
ALAMOSA        CLOUDY    48  47  96 S3        30.21S FOG
LA VETA PASS   NOT AVBL
SAGUACHE       MOCLDY    46  45  93 N3        30.23R
$$

COZ035-036-038>040-231300-
...NORTHERN COLORADO FRONT RANGE...

CITY           SKY/WX    TMP DP  RH WIND       PRES   REMARKS
DENVER INTL AP PTCLDY    54  52  93 CALM      29.97S
DMNS CITY PARK   N/A     55  54  97 E5        29.96F
AURORA         NOT AVBL
FRONT RANGE AP CLEAR     55  54  94 SE5       29.98F
ERIE MUNI ARPT PTCLDY    55  55  99 CALM      29.96F FOG
BOULDER MUN AP CLOUDY    59  59 100 CALM      29.97S
CENTENNIAL     PTCLDY    54  51  90 SE6       29.99S
BROOMFIELD     PTCLDY    57  55  94 N7        29.99S FOG
FORT COLLINS   MOCLDY    61  57  88 CALM      29.97F
LONGMONT       CLOUDY    63  60  91 CALM      29.98S
$$

COZ041-046-047-076>085-087-088-231300-
...PIKES PEAK/PALMER DIVIDE AND SOUTHERN FOOTHILLS...

CITY           SKY/WX    TMP DP  RH WIND       PRES   REMARKS
COLO. SPRINGS  CLOUDY    57  54  89 CALM      30.04F
A. F. ACADEMY  CLOUDY    52  51  96 W2        30.05S
ELLICOTT       CLOUDY    52  52 100 S3        30.02F
FALCON         FOG       53  53  99 W5        30.07F VSB 1/4
FORT CARSON    PTCLDY    52  52 100 CALM      30.01F
LIMON          FOG       56  56 100 S3        29.99F VSB 1/4
MONUMENT HILL  CLEAR     48  46  93 S8        30.05S
TRINIDAD       CLEAR     54  48  80 SW17      30.04F
$$

COZ042>045-048>051-090-091-231300-
...NORTHEAST COLORADO...

CITY           SKY/WX    TMP DP  RH WIND       PRES   REMARKS
GREELEY ARPT   CLOUDY    59  54  82 CALM      29.96S
AKRON          CLOUDY    61  60  97 SE5       29.95R
BURLINGTON     PTCLDY    62  60  93 CALM      29.91F
WRAY             N/A    N/A N/A N/A SW3       29.89F
STERLING       CLOUDY    63  63 100 CALM      29.91F
HOLYOKE        NOT AVBL
FORT MORGAN    CLOUDY    60  58  93 CALM      29.95S
$$

COZ086-089-092>099-231300-
...SOUTHEAST COLORADO...

CITY           SKY/WX    TMP DP  RH WIND       PRES   REMARKS
PUEBLO         CLEAR     53  51  93 CALM      29.96F
LA JUNTA       CLEAR     59  57  93 W10       29.94S
LAMAR          PTCLDY    59  58  96 SW5       29.88F
SPRINGFIELD      N/A     63  55  75 SW10      29.95R
$$


USA.gov is the U.S. government's official web portal to all federal, state and local government web resources and services.